Regional Weather Roundup
Issued by NWS

Home | Current Version | Previous Version | Graphics & Text | Print | Product List | Glossary On
Versions: 1 2 3 4 5 6 7 8 9 10 11 12 13 14 15 16 17 18 19 20 21 22 23 24 25 26 27 28 29 30 31 32 33 34 35 36 37 38 39 40 41 42 43 44 45 46 47 48 49 50
000
ASUS43 KDTX 280310
RWRMI
MICHIGAN HOURLY REGIONAL WEATHER ROUNDUP
NATIONAL WEATHER SERVICE DETROIT/PONTIAC MI
1000 PM EST TUE JAN 27 2015

NOTE: "FAIR" INDICATES FEW OR NO CLOUDS BELOW 12,000 FEET WITH NO
SIGNIFICANT WEATHER AND/OR OBSTRUCTION TO VISIBILITY.

MIZ047>049-052>055-059>063-066>070-074>076-081>083-280400-
SOUTHEAST LOWER MICHIGAN

CITY           SKY/WX    TMP DP  RH WIND       PRES   REMARKS
ADRIAN         CLEAR     17   9  70 N5        30.23S
ALMA           CLEAR     11   7  85 CALM      30.23S
ANN ARBOR      PTCLDY    18  10  71 N5        30.22S
BAD AXE        CLEAR     10   7  87 NW3       30.22R
DETROIT CITY   CLEAR     20   9  62 NW6       30.22S
DETROIT        CLEAR     19  11  70 NW5       30.23S
FLINT          CLEAR     15   9  76 CALM      30.22F
GROSSE ILE     CLEAR     18  10  73 N5        30.21S
HILLSDALE      CLEAR     14   8  79 CALM      30.19S
HOWELL         CLEAR     16  11  80 CALM      30.20F

CITY           SKY/WX    TMP DP  RH WIND       PRES   REMARKS
JACKSON        CLEAR     15   9  76 CALM      30.21S
LAMBERTVILLE   CLEAR     21  12  68 N3        30.23S
LANSING        CLEAR     14   8  77 CALM      30.22F
LAPEER         NOT AVBL
MASON          CLEAR     13   9  84 CALM      30.21F
MONROE         CLEAR     18  12  79 N5        30.21S
MT. CLEMENS    CLEAR     17  10  74 NW8       30.19S
PONTIAC        CLEAR     15   9  76 NW3       30.19S
PORT HOPE        N/A     23  11  60 N8        30.20S
PORT HURON     CLEAR     16  10  79 NW7       30.20S
TRI CITIES     CLEAR     16  10  77 CALM      30.24F
YPSILANTI      PTCLDY    19   9  65 NW5       30.23R
$$
MIZ043>046-050>051-056>058-064>065-071>073-077>080-280400-
SOUTHWEST LOWER MICHIGAN

CITY           SKY/WX    TMP DP  RH WIND       PRES   REMARKS
BATTLE CREEK   CLEAR     17   8  67 SW3       30.22S
BENTON HARBOR  CLEAR     17  13  84 CALM      30.24S
BIG RAPIDS     CLEAR     12   5  73 CALM      30.20F
COLDWATER      CLEAR     14   8  76 CALM      30.21S
HOLLAND        CLEAR     18  11  74 CALM      30.24F
GRAND RAPIDS   CLEAR     16   9  74 CALM      30.22F
KALAMAZOO      CLEAR     17   9  70 CALM      30.22F
MARSHALL       CLEAR     12   6  77 CALM      30.21S
MUSKEGON       CLEAR     19  11  70 CALM      30.23F
$$
MIZ016>042-280400-
NORTHERN LOWER MICHIGAN

CITY           SKY/WX    TMP DP  RH WIND       PRES   REMARKS
ALPENA         CLEAR      0  -4  83 CALM      30.24F
BEAVER ISLAND  PTCLDY     4  -1  77 CALM      30.25R
BELLAIRE       CLEAR      8   5  89 CALM      30.26R
CADILLAC       CLEAR      6   1  81 CALM      30.19S
CHARLEVOIX     CLEAR      8   4  84 CALM      30.27S
FRANKFORT      CLEAR     11   8  89 CALM      30.24F
GAYLORD        CLEAR      0  -2  91 CALM      30.19S
GRAYLING       CLEAR      1  -4  81 CALM      30.21R
HARBOR SPRINGS PTCLDY     7   2  80 CALM      30.24S
HOUGHTON LAKE  CLEAR      6   0  76 CALM      30.20S
MANISTEE       CLEAR     14   9  79 CALM      30.24F
OSCODA         CLEAR      8   2  79 CALM      30.23S
PELLSTON       PTCLDY     2  -4  76 CALM      30.25S
TRAVERSE CITY  CLEAR     11   5  77 CALM      30.24S
$$
MIZ007>008-015-280400-
EASTERN UPPER MICHIGAN

CITY           SKY/WX    TMP DP  RH WIND       PRES   REMARKS
KINROSS        MOCLDY     3  -6  66 CALM      30.24R
MACKINAC ISLAN PTCLDY     7  -1  67 CALM      30.23S
NEWBERRY       PTCLDY     0  -4  86 SW5       30.22R
S. S. MARIE    MOCLDY     4  -5  66 CALM      30.24R
$$
MIZ004>006-011>014-085-280400-
CENTRAL UPPER MICHIGAN

CITY           SKY/WX    TMP DP  RH WIND       PRES   REMARKS
MANISTIQUE     MOCLDY     5   3  90 CALM      30.23S
ESCANABA       CLOUDY    21  16  79 SW3       30.25R
MENOMINEE      CLOUDY    19  16  86 CALM      30.24S
SAWYER-GWINN   CLOUDY    21  18  86 S5        30.17F
$$
MIZ001>003-009>011-084-280400-
WESTERN UPPER MICHIGAN

CITY           SKY/WX    TMP DP  RH WIND       PRES   REMARKS
IRON MOUNTAIN  CLOUDY    22  16  78 S6        30.16F
HOUGHTON       CLOUDY    24  18  77 SW5       30.15R
COPPER HARBOR    N/A     25  19  78 CALM      30.17F
IRONWOOD       CLOUDY    25  21  86 S6        30.11F
$$

ABBREVIATIONS USED IN REMARKS
   TC - TEMPERATURE IN CELSIUS
  WCI - WIND CHILL INDEX
   HX - HEAT INDEX
  VSB - VISIBILITY



USA.gov is the U.S. government's official web portal to all federal, state and local government web resources and services.